Airfield :
LOGIN :

Register | Disclaimer

   EN    FR    IT 

 










Legend :    VFR   Marginal VFR   IFR   Intensive IFR   Very Intensive IFR
Visi :
Ceiling :
>= 8 km
>= 3000ft
5 to 8 km
1000 to 3000 ft
1500m to 5 km
500 to 1000 ft
800 to 1500m
200 to 500 ft
< 800m
< 200 ft
Symbols :   Thunderstorms  Fog  Heavy snow  Heavy precipitations  Wind > 20 kt
SIGMETs :     Misc.  Thunderstorms  Icing  Turbulence  Mountain Waves  Volcanic Ashes






- Airport Elevation : 26 ft


ETNT - Wittmundhaven AB

CURRENT METAR :
  • 301720Z 10006KT 9999 BKN060 20/15 Q1003 BLU

EXPIRED METARs :
  • 301620Z 12005KT 9999 BKN060 21/15 Q1004 BLU
  • 301520Z VRB03KT 9999 BKN060 BKN240 21/14 Q1005 BLU

TAF AMD TAF ETNT
Valid from the 30 at 17:00 until the 31 at 02:00 UTC


301700Z 3017/3102 12010KT 9999 NSW FEW020 BKN050
TEMPO 3017/3021 25015G30KT 3000 TSRA SCT010 BKN030CB
PROB30 3021/3102 25015KT 4000 -SHRA SCT012 BKN030TCU BY ETGL



MET'MAP, your aeronautical weather chart ! - Copyright ORBIFLY December 2007 - Disclaimer

ORBIFLY MET'MAP TEAM :

Programming & Development : Alexandra Zaïnal
Concept & original design : Baudouin d'Aumeries
Assistance for programming : Marc-Olivier Méhu
Technical & hardware support : Manuel Goepfert

Contact : metmap@orbifly.com




SOURCES & CREDITS :

   NOAA